User: anonymous   Login
Location: NJAA Observatory
(40.6819°N, 74.8979°W)
Time: 10:47:01
(UTC-05:00)
Language:

Cosmos 1939 Rocket - Orbit

View from above orbital plane
View from above orbital plane
View from above satellite
View from above satellite

Ground track
Ground track

The orbit data is extracted from the following two-line orbital elements,

1 19046U 88032B   14331.80301070  .00002459  00000-0  19920-3 0   582
2 19046 097.6242 023.3407 0037675 262.7168 096.9772 15.00100651432728
Epoch (UTC): 27 November 2014 19:16:20
Eccentricity: 0.0037675
inclination: 97.6242°
perigee height: 540 km
apogee height: 593 km
right ascension of ascending node: 23.3407°
argument of perigee: 262.7168°
revolutions per day: 15.00100651
mean anomaly at epoch: 96.9772°
orbit number at epoch: 43272

The dashed part of the orbit path shows where the satellite is in the earth's shadow,  

DLR